Powrót do katalogu

COSMOS 2447

GLONASS

AktywnyNawigacjaMEO
NORAD 33466·PAYLOAD·🇷🇺 Russia

Wystrzelony Dec 25, 2008 z Baikonur Cosmodrome

Loading…

Następne Przeloty (najbliższe 24 godziny)

TLE

ŚwieżeSource: Space-Track

Epoka: Sep 13, 2026, 22:51 UTC

1 33466U 08067A   26256.95248289 -.00000015  00000-0  00000-0 0  9998
2 33466  64.8779  66.3016 0006465 259.7136  97.5255  2.13107608137856

Śledź COSMOS 2447 w czasie rzeczywistym z AllMySat

Download on the App Store